STARLINK-32447, 61261

Orbit data source: Space-Track

STARLINK-32447, 61261 is a payload satellite owned by SpaceX/Seattle (US) in LEO that was launched on Wed, 25 Sep 2024 UTC via an FALCON 9 launch vehicle from the Air Force Western Test Range (AFWTR). Payloads include a variety of satellites, spacecraft, and rockets equipped with specific instruments for various scientific and technological missions. These include communications satellites like Starlink; space stations such as the ISS; scientific satellites like the Hubble; Earth observation satellites from companies like Planet Labs, Umbra, and HawkEye 360; GPS; miniature CubeSats for education and research; and military/defense satellites.

Loading next visibility...
STARLINK-32447 details
Identifier
61261, 2024-175U
Orbit
LEO
Last TLE update19 hours ago
Origin
Flag of USSpaceX/Seattle (US)
ManufacturerSpaceX/Seattle
MissionOperational spacecraft
Bus & MotorSTARLINK V2M, Unknown motor
Mass730 kg wet, ~700 kg dry
Launch date (UTC)
2024-09-25 (3 months ago)
Launch vehicle
FALCON 9
Launch site
Air Force Western Test Range (AFWTR)
Object type
Payload
Rocket body
Debris
Shape & HBRUnknown
Radar Cross SectionLarge (>1 m²)

Expand to show TLE details & history

TLE from 19 hours ago
0 STARLINK-32447
1 61261U 24175U   24355.72419280  .00003633  00000-0  10079-3 0  9992
2 61261  53.1585  98.8310 0001226  89.7310 270.3835 15.39608697 13447
Epoch: 2024-12-20T17:22Z
Definitive object data (Epoch: 2024-12-20T17:22:50.257Z)
Latitude-0.00007°
Longitude108.33595°
Altitude448.163 km
Speed7.645 km/s
True Right ascension06h 35m 19s
True Declination0° 00' 00"
Sunlit
Object was in full shadow at TLE epoch
Visualization TLE readout
Latitude49.82826°
Longitude-137.37901°
Altitude452.218 km
Speed7.648 km/s
Apparent Right ascension19h 26m 20s
Apparent Declination19° 28' 14"
Sunlit
Object is in daylight
Visualization observer readout
Local Sidereal Time11:34:18
Azimuth57.042° ENE
Elevation-7.219°
Doppler factor1
Orbital elements
Apogee altitude448.36 km
Perigee altitude446.686 km
Semi-major axis6,825.66 km
Eccentricity0.0001226
Inclination53.1585°
RAAN98.831°
Arg. of periapsis89.731°
True anomaly270.36945°
Mean anomaly270.3835°
Eccentric anomaly270.37648°
Mean motion3.84881 °/min
BSTAR0.00010079
Orbital period93.54 mins
Loading maneuver chart data...
Loading historical data...
Loading historical data...
Loading historical data...
Loading historical data...
Loading historical data...
Loading historical data...
Loading historical data...

STARLINK-32447 Visibility forecast

Observer location: undefined°, undefined

Span
Click to sort rows by Start time (UTC) header in descending order
Start Az.
Max El. time (UTC)
Max El. Az.
Max El.
End time (UTC)
End Az.
4 mins2024-12-21 15:40:29.949Z347.901° N2024-12-21 15:42:29.949Z46.163° ENE24.804°2024-12-21 15:44:29.949Z86.562° E
5 mins2024-12-21 17:17:29.949Z279.711° WNW2024-12-21 17:19:29.949Z219.833° SW29.293°2024-12-21 17:22:29.949Z160.635° S
5 mins2024-12-22 10:06:29.949Z264.173° W2024-12-22 10:08:29.949Z328.162° NNW33.801°2024-12-22 10:11:29.949Z36.881° NE
|